Regional Weather Roundup
Issued by NWS

Home | Current Version | Previous Version | Text Only | Print | Product List | Glossary On
Versions: 1 2 3 4 5 6 7 8 9 10 11 12 13 14 15 16 17 18 19 20 21 22 23 24 25 26 27 28 29 30 31 32 33 34 35 36 37 38 39 40 41 42 43 44 45 46 47 48 49 50
000
ASUS46 KSTO 172204
RWRCA

NORTHERN AND CENTRAL CA REGIONAL WEATHER ROUNDUP
NATIONAL WEATHER SERVICE SACRAMENTO CA
300 PM PDT WED SEP 17 2014

NOTE: FAIR INDICATES FEW OR NO CLOUDS BELOW 12,000 FEET WITH NO
SIGNIFICANT WEATHER AND/OR OBSTRUCTIONS TO VISIBILITY.

CAZ001-003-172300-
NORTHWEST AREA

CITY           SKY/WX    TMP DP  RH WIND       PRES   REMARKS
CRESCENT CITY  CLOUDY    63  61  93 CALM      29.77F
UKIAH          MOSUNNY   83  51  33 SE10      29.72F
$$

CAZ006-505>513-172300-
BAY AREA

CITY           SKY/WX    TMP DP  RH WIND       PRES   REMARKS
SANTA ROSA     MOSUNNY   79  54  41 S10       29.75F
SAN RAFAEL     N/A       75  MM  MM MISG
NAPA           SUNNY     80  51  36 S17G24    29.76F
CONCORD        SUNNY     82  55  39 W15       29.75S
OAKLAND CITY   N/A       75  MM  MM MISG
OAKLAND        MOSUNNY   75  57  53 W14       29.78F
SAN FRAN CITY  N/A       72  MM  56 MISG
SAN FRAN ARPT  MOSUNNY   81  55  40 S14       29.77F
LIVERMORE      SUNNY     89  51  27 SW16      29.73F
HAYWARD        SUNNY     80  57  45 NW13G22   29.77F
REDWOOD CITY   N/A       MM  MM  MM MISG
MOFFETT ARPT   SUNNY     78  58  49 N15       29.77F
SAN JOSE ARPT  MOSUNNY   78  58  49 NW15      29.75F
$$
CAZ034-037-514>518-172300-
CENTRAL COAST

CITY           SKY/WX    TMP DP  RH WIND       PRES   REMARKS
WATSONVILLE    SUNNY     76  56  49 W8        29.82S
SALINAS        SUNNY     73  56  54 W13       29.81S
MONTEREY       SUNNY     75  55  49 VRB6G20   29.81F
SAN LUIS OBISP SUNNY     82  50  32 NW12      29.81F
SANTA MARIA    SUNNY     79  58  48 NW8       29.83F
$$
CAZ015-016-172300-
NORTHERN SACRAMENTO VALLEY

CITY           SKY/WX    TMP DP  RH WIND       PRES   REMARKS
REDDING        MOSUNNY   92  40  16 S23G29    29.66F
RED BLUFF      SUNNY     92  40  16 S23G32    29.68F
OROVILLE       MOSUNNY   92  38  15 S14       29.73F
$$
CAZ016>018-172300-
SOUTHERN SACRAMENTO VALLEY

CITY           SKY/WX    TMP DP  RH WIND       PRES   REMARKS
AUBURN         SUNNY     88  39  18 SW7       29.80F
BEALE AFB      SUNNY     91  42  18 S12       29.71F
MARYSVILLE     SUNNY     91  40  16 S14G25    29.71F
SAC INTL ARPT  MOSUNNY   88  45  22 S9        29.72F
MATHER AIRPORT MOSUNNY   90  46  22 SW7       29.72F
DOWNTOWN SAC   N/A       91  MM  MM MISG
SAC EXEC ARPT  SUNNY     88  51  28 W10       29.73F
VACAVILLE      SUNNY     87  46  24 SW15G29   29.74F
TRAVIS AFB     SUNNY     85  51  31 W16       29.72F
$$
CAZ019>021-172300-
SAN JOAQUIN VALLEY

CITY           SKY/WX    TMP DP  RH WIND       PRES   REMARKS
STOCKTON       SUNNY     92  49  22 CALM      29.72F
MODESTO        SUNNY     90  51  26 SW3       29.71F
MERCED         SUNNY     96  47  18 NW6       29.71F HX  92
LEMOORE        SUNNY    100  49  17 VRB7      29.71F HX  97
FRESNO         MOSUNNY   97  48  18 VRB5      29.72F HX  93
HANFORD        PTSUNNY   97  48  18 VRB3      29.72F HX  93
PORTERVILLE    SUNNY     97  55  24 NW8       29.74F HX  95
BAKERSFIELD    SUNNY     98  53  22 NW13      29.72F HX  96
$$
CAZ011-012-071-172300-
NORTHERN MOUNTAINS

CITY           SKY/WX    TMP DP  RH WIND       PRES   REMARKS
YREKA          MOSUNNY   82  37  20 S30G40    29.73F
MOUNT SHASTA   SUNNY     80  40  23 VRB5      29.81F
ALTURAS        SUNNY     86  30  13 SW24G36   29.85F
$$
CAZ011-012-071-172300-
SIERRA NEVADA MTNS

CITY           SKY/WX    TMP DP  RH WIND       PRES   REMARKS
BLUE CANYON    MOSUNNY   75  31  19 S14G24    30.01F
TRUCKEE        PTSUNNY   79  37  22 SW16G25   30.01F SMOKE
TAHOE VLY ARPT SUNNY     78  33  19 S18G28    30.03F
$$




USA.gov is the U.S. government's official web portal to all federal, state and local government web resources and services.